Japanese version Home page |
Updated on May 15, 2024 |
|
Orbital ElementsEpoch 2024 Mar. 31.0 TT = JDT 2460400.5 T 2023 Dec. 13.86792 TT Rudenko q 0.8462122 (2000.0) P Q z -0.0109619 Peri. 56.95582 +0.34095503 -0.79516088 +/-0.0005715 Node 31.51956 +0.12703987 -0.48956389 e 1.0092761 Incl. 73.57956 +0.93145614 +0.35783567 >From 155 observations 2023 Nov. 5-14, mean residual 0".9.
|
Magnitudes Graphm1 = 20.5 + 5 log d + 10.0 log r
|
The orbital elements are published on M.P.E.C. 2024-G193.
|